Tracking 19634 objects as of 21-May-2019
HD Live streaming from Space Station
objects crossing your sky now

CLUSTER II-FM6

Track CLUSTER II-FM6 now!
CLUSTER II-FM6 is classified as:


NORAD ID: 26410
Int'l Code: 2000-041A
Perigee: 36,415.5 km
Apogee: 96,341.4 km
Inclination: 131.2 °
Period: 3,254.6 minutes
Semi major axis: 72749 km
RCS: 1.9953 m2 (large)
Launch date: July 16, 2000
Source: European Space Agency (ESA)
Launch site: TYURATAM MISSILE AND SPACE COMPLEX (TTMTR)
aabbcc
Your satellite tracking list
Your tracking list is empty




NASA's NSSDC Master Catalog

Two Line Element Set (TLE):
1 26410U 00041A   19138.54483906  .00000432  00000-0  00000+0 0  9997
2 26410 131.2186 338.6688 4118649 172.0157   0.5157  0.44244426 20599
Source of the keplerian elements: AFSPC